Hebbronville, TX

12:43 PM CST on December 10, 2016 (GMT -0600)
Hogg County

Weather History for KHBV - September, 2012

Change the Weather History Date:

Tuesday, September 18, 2012

  Actual Average (KALI) Record (KALI)
Temperature  
Mean Temperature 80 °F -  
Max Temperature 92 °F 89 °F 99 °F (2016)
Min Temperature 69 °F 69 °F 63 °F (2008)
Cooling Degree Days 16    
Growing Degree Days 30 (Base 50)    
Moisture  
Dew Point 62 °F    
Average Humidity 60    
Maximum Humidity 94    
Minimum Humidity 25    
Precipitation  
Precipitation 0.00 in - - ()
Sea Level Pressure  
Sea Level Pressure 29.97 in    
Wind  
Wind Speed 4 mph (NE)    
Max Wind Speed 15 mph    
Max Gust Speed 17 mph    
Visibility 9 miles    
Events      
Averages and records for this station are not official NWS values.
T = Trace of Precipitation, MM = Missing Value Source: NWS Daily Summary

Daily Weather History Graph

Daily Weather History Graph

Search for Another Location

Airport or City:

Trip Planner

Search our weather history database for the weather conditions in past years. The results will help you decide how hot, cold, wet, or windy it might be!

Date:

Astronomy

Sep. 18, 2012 Rise Set
Actual Time 7:21 AM CDT 7:35 PM CDT
Civil Twilight 6:58 AM CDT 7:58 PM CDT
Nautical Twilight 6:31 AM CDT 8:25 PM CDT
Astronomical Twilight 6:03 AM CDT 8:53 PM CDT
Moon 10:01 AM CDT (9/18) 9:23 PM CDT (9/18)
Length of Visible Light 13h 00m
Length of Day
12h 13m
Waxing Crescent, 9% of the Moon is Illuminated
Sep 18
Waxing Crescent
Sep 22
First Quarter
Sep 29
Full
Oct 8
Last Quarter
Oct 15
New

Hourly Weather History & Observations

Time (CDT) Temp. Heat Index Dew Point Humidity Pressure Visibility Wind Dir Wind Speed Gust Speed Precip Events Conditions
12:15 AM 73.4 °F - 68.5 °F 85% 29.90 in 10.0 mi ESE 4.6 mph - N/A   Clear
12:35 AM 73.2 °F - 68.5 °F 85% 29.90 in 10.0 mi ESE 3.5 mph - N/A   Clear
12:55 AM 72.7 °F - 68.4 °F 86% 29.90 in 10.0 mi ESE 3.5 mph - N/A   Clear
1:15 AM 72.7 °F - 68.4 °F 86% 29.91 in 10.0 mi Calm Calm - N/A   Clear
1:55 AM 72.1 °F - 68.2 °F 87% 29.91 in 10.0 mi Calm Calm - N/A   Clear
2:55 AM 71.4 °F - 68.2 °F 89% 29.91 in 10.0 mi Calm Calm - N/A   Clear
3:15 AM 71.1 °F - 68.0 °F 90% 29.91 in 10.0 mi Calm Calm - N/A   Clear
3:35 AM 71.6 °F - 68.2 °F 89% 29.90 in 10.0 mi Calm Calm - N/A   Clear
3:55 AM 71.2 °F - 68.0 °F 89% 29.90 in 10.0 mi Calm Calm - N/A   Scattered Clouds
4:15 AM 70.9 °F - 68.0 °F 91% 29.90 in 10.0 mi Calm Calm - N/A   Scattered Clouds
4:35 AM 70.5 °F - 67.8 °F 91% 29.90 in 7.0 mi Calm Calm - N/A   Clear
4:55 AM 70.0 °F - 67.6 °F 92% 29.91 in 7.0 mi Calm Calm - N/A   Scattered Clouds
5:15 AM 70.0 °F - 67.6 °F 92% 29.91 in 7.0 mi Calm Calm - N/A   Mostly Cloudy
5:35 AM 70.3 °F - 68.0 °F 92% 29.91 in 7.0 mi Calm Calm - N/A   Mostly Cloudy
5:55 AM 70.3 °F - 68.0 °F 92% 29.92 in 7.0 mi Calm Calm - N/A   Scattered Clouds
6:15 AM 70.3 °F - 68.0 °F 92% 29.92 in 7.0 mi Calm Calm - N/A   Mostly Cloudy
6:35 AM 70.2 °F - 68.0 °F 93% 29.92 in 7.0 mi Calm Calm - N/A   Scattered Clouds
6:55 AM 70.0 °F - 67.6 °F 92% 29.93 in 5.0 mi Calm Calm - N/A   Clear
7:15 AM 69.4 °F - 67.5 °F 93% 29.93 in 4.0 mi NE 3.5 mph - N/A   Clear
7:35 AM 69.3 °F - 67.5 °F 94% 29.94 in 4.0 mi Calm Calm - N/A   Clear
7:55 AM 69.8 °F - 68.0 °F 94% 29.94 in 4.0 mi Calm Calm - N/A   Clear
8:15 AM 70.7 °F - 68.5 °F 93% 29.95 in 5.0 mi NNE 3.5 mph - N/A   Clear
8:35 AM 72.1 °F - 69.6 °F 92% 29.96 in 7.0 mi NE 4.6 mph - N/A   Clear
8:55 AM 74.1 °F - 70.3 °F 88% 29.98 in 10.0 mi ENE 5.8 mph - N/A   Clear
9:15 AM 76.3 °F - 70.7 °F 83% 29.99 in 10.0 mi ENE 5.8 mph - N/A   Clear
9:55 AM 79.7 °F - 70.9 °F 74% 29.99 in 10.0 mi ENE 8.1 mph - N/A   Clear
10:35 AM 82.2 °F 86.0 °F 70.0 °F 66% 30.00 in 10.0 mi ENE 6.9 mph - N/A   Clear
10:55 AM 83.8 °F 87.3 °F 68.5 °F 60% 30.01 in 10.0 mi ENE 8.1 mph - N/A   Clear
11:15 AM 85.5 °F 87.4 °F 65.5 °F 51% 30.02 in 10.0 mi ENE 10.4 mph - N/A   Scattered Clouds
11:35 AM 86.2 °F 87.1 °F 63.1 °F 46% 30.03 in 10.0 mi NE 8.1 mph - N/A   Scattered Clouds
11:55 AM 86.5 °F 86.8 °F 61.7 °F 43% 30.03 in 10.0 mi NE 11.5 mph 16.1 mph N/A   Scattered Clouds
12:15 PM 87.6 °F 87.2 °F 60.1 °F 39% 30.04 in 10.0 mi NE 11.5 mph - N/A   Mostly Cloudy
12:35 PM 88.5 °F 87.8 °F 59.0 °F 37% 30.03 in 10.0 mi NNE 12.7 mph 17.3 mph N/A   Mostly Cloudy
12:55 PM 87.8 °F 86.9 °F 58.5 °F 37% 30.03 in 10.0 mi NE 10.4 mph - N/A   Scattered Clouds
1:15 PM 89.2 °F 87.7 °F 56.7 °F 33% 30.03 in 10.0 mi NNE 6.9 mph 10.4 mph N/A   Scattered Clouds
1:35 PM 90.5 °F 88.7 °F 55.8 °F 31% 30.02 in 10.0 mi NNE 12.7 mph 16.1 mph N/A   Mostly Cloudy
1:55 PM 90.0 °F 88.3 °F 56.1 °F 32% 30.02 in 10.0 mi NE 10.4 mph - N/A   Scattered Clouds
2:15 PM 90.1 °F 88.3 °F 55.4 °F 31% 30.01 in 10.0 mi ENE 8.1 mph 16.1 mph N/A   Scattered Clouds
2:35 PM 90.5 °F 88.5 °F 55.4 °F 30% 30.00 in 10.0 mi North 15.0 mph - N/A   Mostly Cloudy
2:55 PM 90.3 °F 88.3 °F 55.0 °F 30% 30.00 in 10.0 mi Calm Calm - N/A   Scattered Clouds
3:15 PM 91.0 °F 88.7 °F 53.8 °F 28% 29.98 in 10.0 mi ENE 9.2 mph - N/A   Scattered Clouds
3:35 PM 90.9 °F 88.7 °F 54.5 °F 29% 29.97 in 10.0 mi East 3.5 mph - N/A   Scattered Clouds
3:55 PM 91.6 °F 89.3 °F 53.8 °F 28% 29.96 in 10.0 mi NNE 8.1 mph - N/A   Scattered Clouds
4:15 PM 91.9 °F 89.8 °F 54.3 °F 28% 29.95 in 10.0 mi ENE 5.8 mph - N/A   Scattered Clouds
4:35 PM 91.9 °F 89.5 °F 54.0 °F 27% 29.94 in 10.0 mi NNE 6.9 mph - N/A   Scattered Clouds
4:55 PM 92.1 °F - 52.7 °F 26% 29.95 in 10.0 mi NNE 9.2 mph - N/A   Scattered Clouds
5:35 PM 92.5 °F - 51.6 °F 25% 29.95 in 10.0 mi NNW 9.2 mph - N/A   Scattered Clouds
5:55 PM 92.1 °F - 52.0 °F 25% 29.96 in 10.0 mi NNE 9.2 mph - N/A   Clear
6:15 PM 91.4 °F - 52.7 °F 27% 29.96 in 10.0 mi NE 6.9 mph - N/A   Clear
6:35 PM 90.7 °F - 52.5 °F 27% 29.96 in 10.0 mi NE 5.8 mph - N/A   Clear
6:55 PM 90.1 °F - 52.9 °F 28% 29.97 in 10.0 mi North 4.6 mph - N/A   Clear
7:15 PM 89.4 °F 87.3 °F 53.8 °F 30% 29.97 in 10.0 mi NE 4.6 mph - N/A   Mostly Cloudy
7:35 PM 88.5 °F 86.5 °F 54.7 °F 31% 29.98 in 10.0 mi NNE 4.6 mph - N/A   Scattered Clouds
7:55 PM 86.9 °F 85.3 °F 55.4 °F 34% 29.98 in 10.0 mi North 4.6 mph - N/A   Scattered Clouds
8:15 PM 85.5 °F 84.3 °F 56.5 °F 37% 30.00 in 10.0 mi Calm Calm - N/A   Clear
8:55 PM 83.5 °F 83.1 °F 58.3 °F 42% 30.01 in 10.0 mi NNW 3.5 mph - N/A   Scattered Clouds
9:15 PM 82.4 °F 82.5 °F 58.8 °F 45% 30.02 in 10.0 mi NNW 4.6 mph - N/A   Scattered Clouds
9:55 PM 81.3 °F 82.7 °F 63.5 °F 55% 30.04 in 10.0 mi East 6.9 mph - N/A   Scattered Clouds
10:15 PM 80.4 °F 82.6 °F 66.4 °F 62% 30.05 in 10.0 mi ESE 5.8 mph - N/A   Scattered Clouds
10:55 PM 78.8 °F - 67.1 °F 67% 30.06 in 10.0 mi Calm Calm - N/A   Scattered Clouds
11:15 PM 77.7 °F - 67.5 °F 71% 30.06 in 10.0 mi Calm Calm - N/A   Clear
11:55 PM 76.8 °F - 67.8 °F 74% 30.06 in 10.0 mi East 3.5 mph - N/A   Clear